AAL3044 KTPA-KMIA

Flight info

Callsign AAL3044
Flight time 0h 35m
Altitude 25000
Route GANDY8 SABEE FROGZ5
Aircraft A21N/M-SDE3FGHIRWY/LB1

Departure

Time 2026-05-05 19:26
Airport Tampa International Airport (KTPA)

Arrival

Time 2026-05-05 20:02
Airport Miami International Airport (KMIA)
Time Latitude Longitude Altitude Speed Heading
2026-05-05 18:43 27.97621 -82.53796 20 ft 0 kts 32°
2026-05-05 19:15 27.97617 -82.53799 20 ft 2 kts 33°
2026-05-05 19:15 27.97605 -82.53808 20 ft 2 kts 32°
2026-05-05 19:15 27.97592 -82.53817 20 ft 2 kts 33°
2026-05-05 19:15 27.97583 -82.53824 20 ft 0 kts 32°
2026-05-05 19:16 27.97570 -82.53830 20 ft 2 kts 358°
2026-05-05 19:16 27.97555 -82.53825 20 ft 2 kts 323°
2026-05-05 19:16 27.97549 -82.53819 20 ft 1 kts 303°
2026-05-05 19:16 27.97546 -82.53812 20 ft 0 kts 302°
2026-05-05 19:21 27.97572 -82.53859 19 ft 12 kts 302°
2026-05-05 19:21 27.97624 -82.53946 19 ft 14 kts 304°
2026-05-05 19:21 27.97720 -82.53982 20 ft 15 kts 359°
2026-05-05 19:22 27.97825 -82.53982 20 ft 15 kts
2026-05-05 19:22 27.97934 -82.53975 21 ft 16 kts
2026-05-05 19:22 27.98033 -82.54022 21 ft 15 kts 307°
2026-05-05 19:22 27.98134 -82.54053 21 ft 15 kts
2026-05-05 19:23 27.98243 -82.54049 22 ft 15 kts
2026-05-05 19:23 27.98353 -82.54044 22 ft 15 kts
2026-05-05 19:23 27.98457 -82.54041 22 ft 15 kts
2026-05-05 19:23 27.98569 -82.54037 22 ft 16 kts
2026-05-05 19:24 27.98708 -82.54032 22 ft 20 kts
2026-05-05 19:24 27.98848 -82.54028 22 ft 19 kts
2026-05-05 19:24 27.99003 -82.54018 22 ft 22 kts
2026-05-05 19:24 27.99154 -82.54016 22 ft 21 kts
2026-05-05 19:25 27.99294 -82.54016 23 ft 14 kts 355°
2026-05-05 19:25 27.99344 -82.54059 23 ft 8 kts 295°
2026-05-05 19:25 27.99327 -82.54125 22 ft 9 kts 216°
2026-05-05 19:25 27.99250 -82.54137 22 ft 20 kts 181°
2026-05-05 19:26 27.98823 -82.54150 22 ft 99 kts 181°
2026-05-05 19:26 27.97898 -82.54180 31 ft 161 kts 182°
2026-05-05 19:26 27.96683 -82.54228 377 ft 183 kts 182°
2026-05-05 19:26 27.95416 -82.54351 1120 ft 186 kts 191°
2026-05-05 19:27 27.94185 -82.54764 1916 ft 185 kts 196°
2026-05-05 19:27 27.92932 -82.55212 2446 ft 195 kts 195°
2026-05-05 19:27 27.91561 -82.55513 2899 ft 209 kts 185°
2026-05-05 19:27 27.90051 -82.55680 3295 ft 230 kts 183°
2026-05-05 19:28 27.88359 -82.55846 3711 ft 252 kts 184°
2026-05-05 19:28 27.86572 -82.56057 4270 ft 268 kts 185°
2026-05-05 19:28 27.84701 -82.56320 5078 ft 274 kts 186°
2026-05-05 19:28 27.82877 -82.56584 5925 ft 277 kts 186°
2026-05-05 19:29 27.80973 -82.56852 6772 ft 280 kts 187°
2026-05-05 19:29 27.79042 -82.57118 7612 ft 284 kts 188°
2026-05-05 19:29 27.77027 -82.57184 8468 ft 290 kts 175°
2026-05-05 19:29 27.75066 -82.56647 9321 ft 296 kts 161°
2026-05-05 19:30 27.73694 -82.56027 9922 ft 299 kts 159°
2026-05-05 19:30 27.71769 -82.55095 10590 ft 310 kts 158°
2026-05-05 19:30 27.69712 -82.54090 11047 ft 328 kts 158°
2026-05-05 19:30 27.67561 -82.53050 11480 ft 345 kts 158°
2026-05-05 19:31 27.65340 -82.51986 12094 ft 354 kts 159°
2026-05-05 19:31 27.63050 -82.50894 12808 ft 360 kts 159°
2026-05-05 19:31 27.60683 -82.49770 13504 ft 366 kts 159°
2026-05-05 19:31 27.58334 -82.48658 14163 ft 372 kts 159°
2026-05-05 19:32 27.55970 -82.47421 14844 ft 378 kts 155°
2026-05-05 19:32 27.53628 -82.46038 15518 ft 382 kts 154°
2026-05-05 19:32 27.51265 -82.44615 16174 ft 387 kts 153°
2026-05-05 19:32 27.48901 -82.43188 16790 ft 392 kts 153°
2026-05-05 19:33 27.46483 -82.41729 17432 ft 396 kts 154°
2026-05-05 19:33 27.44036 -82.40254 18106 ft 398 kts 154°
2026-05-05 19:33 27.41606 -82.38792 18712 ft 402 kts 154°
2026-05-05 19:33 27.39115 -82.37296 19279 ft 407 kts 154°
2026-05-05 19:34 27.36611 -82.35793 19832 ft 411 kts 154°
2026-05-05 19:34 27.34039 -82.34251 20372 ft 415 kts 155°
2026-05-05 19:34 27.31494 -82.32727 20889 ft 419 kts 155°
2026-05-05 19:35 27.26321 -82.29634 21981 ft 423 kts 155°
2026-05-05 19:35 27.23709 -82.28072 22614 ft 423 kts 155°
2026-05-05 19:35 27.21113 -82.26521 23274 ft 422 kts 155°
2026-05-05 19:35 27.18552 -82.24989 23846 ft 423 kts 155°
2026-05-05 19:36 27.15919 -82.23420 24351 ft 426 kts 155°
2026-05-05 19:36 27.13303 -82.21859 24790 ft 430 kts 155°
2026-05-05 19:36 27.10611 -82.20313 24984 ft 431 kts 159°
2026-05-05 19:36 27.07828 -82.19119 24984 ft 429 kts 167°
2026-05-05 19:37 27.04933 -82.18333 24989 ft 426 kts 174°
2026-05-05 19:37 27.02010 -82.17754 24987 ft 426 kts 175°
2026-05-05 19:37 26.99076 -82.17217 24989 ft 426 kts 175°
2026-05-05 19:37 26.96173 -82.16684 24988 ft 426 kts 175°
2026-05-05 19:38 26.93226 -82.16128 24991 ft 426 kts 175°
2026-05-05 19:38 26.90336 -82.15577 24991 ft 426 kts 175°
2026-05-05 19:38 26.87382 -82.15006 24989 ft 426 kts 175°
2026-05-05 19:38 26.84475 -82.14442 24989 ft 426 kts 175°
2026-05-05 19:39 26.81562 -82.13879 24993 ft 426 kts 175°
2026-05-05 19:39 26.78625 -82.13310 24993 ft 426 kts 175°
2026-05-05 19:39 26.75690 -82.12733 24991 ft 426 kts 174°
2026-05-05 19:39 26.72759 -82.12064 24993 ft 427 kts 173°
2026-05-05 19:40 26.69865 -82.11386 24995 ft 427 kts 173°
2026-05-05 19:40 26.66970 -82.10703 24994 ft 426 kts 173°
2026-05-05 19:40 26.64060 -82.10019 24996 ft 426 kts 173°
2026-05-05 19:40 26.61149 -82.09335 24995 ft 426 kts 173°
2026-05-05 19:41 26.58260 -82.08659 24989 ft 426 kts 173°
2026-05-05 19:41 26.55360 -82.07928 24990 ft 429 kts 168°
2026-05-05 19:41 26.52571 -82.06632 24987 ft 434 kts 153°
2026-05-05 19:41 26.50117 -82.04710 24989 ft 436 kts 141°
2026-05-05 19:42 26.47840 -82.02440 24993 ft 436 kts 139°
2026-05-05 19:42 26.45643 -82.00155 24994 ft 436 kts 138°
2026-05-05 19:42 26.43423 -81.97851 24996 ft 436 kts 139°
2026-05-05 19:42 26.41178 -81.95549 24996 ft 436 kts 139°
2026-05-05 19:43 26.38926 -81.93264 25001 ft 436 kts 139°
2026-05-05 19:43 26.36700 -81.91017 24999 ft 436 kts 139°
2026-05-05 19:43 26.34449 -81.88753 24988 ft 435 kts 139°
2026-05-05 19:43 26.32179 -81.86476 24664 ft 435 kts 140°
2026-05-05 19:44 26.29967 -81.84256 24234 ft 432 kts 139°
2026-05-05 19:44 26.27721 -81.82001 23710 ft 431 kts 140°
2026-05-05 19:44 26.25531 -81.79776 23141 ft 432 kts 136°
2026-05-05 19:44 26.23560 -81.77219 22541 ft 434 kts 126°
2026-05-05 19:45 26.22005 -81.74336 21975 ft 435 kts 116°
2026-05-05 19:45 26.20691 -81.71342 21398 ft 435 kts 114°
2026-05-05 19:45 26.19414 -81.68307 20788 ft 436 kts 114°
2026-05-05 19:45 26.18121 -81.65243 20233 ft 435 kts 114°
2026-05-05 19:46 26.16842 -81.62245 19825 ft 429 kts 114°
2026-05-05 19:46 26.15560 -81.59270 19453 ft 422 kts 115°
2026-05-05 19:46 26.14289 -81.56341 18967 ft 419 kts 115°
2026-05-05 19:46 26.13033 -81.53457 18430 ft 417 kts 115°
2026-05-05 19:47 26.11773 -81.50565 17969 ft 413 kts 115°
2026-05-05 19:47 26.10545 -81.47749 17592 ft 406 kts 115°
2026-05-05 19:47 26.09304 -81.44909 17050 ft 405 kts 115°
2026-05-05 19:47 26.08078 -81.42100 16539 ft 402 kts 115°
2026-05-05 19:48 26.06869 -81.39331 16050 ft 399 kts 115°
2026-05-05 19:48 26.05671 -81.36587 15561 ft 395 kts 115°
2026-05-05 19:48 26.04474 -81.33843 15108 ft 391 kts 115°
2026-05-05 19:48 26.03305 -81.31158 14672 ft 387 kts 115°
2026-05-05 19:49 26.02150 -81.28504 14223 ft 383 kts 115°
2026-05-05 19:49 26.01367 -81.26709 13901 ft 380 kts 116°
2026-05-05 19:49 25.99857 -81.23252 13310 ft 375 kts 116°
2026-05-05 19:49 25.98724 -81.20658 12863 ft 371 kts 116°
2026-05-05 19:50 25.97600 -81.18080 12402 ft 368 kts 116°
2026-05-05 19:50 25.96503 -81.15568 11975 ft 364 kts 116°
2026-05-05 19:50 25.95397 -81.13039 11517 ft 360 kts 116°
2026-05-05 19:50 25.94319 -81.10574 11073 ft 356 kts 116°
2026-05-05 19:51 25.93238 -81.08109 10644 ft 353 kts 116°
2026-05-05 19:51 25.92179 -81.05695 10357 ft 344 kts 116°
2026-05-05 19:51 25.91163 -81.03328 10205 ft 332 kts 114°
2026-05-05 19:51 25.90255 -81.00997 9997 ft 321 kts 113°
2026-05-05 19:52 25.89408 -80.98776 9863 ft 310 kts 113°
2026-05-05 19:52 25.88579 -80.96598 9495 ft 307 kts 113°
2026-05-05 19:52 25.87746 -80.94416 9134 ft 305 kts 113°
2026-05-05 19:52 25.86918 -80.92258 8867 ft 298 kts 113°
2026-05-05 19:53 25.86112 -80.90156 8871 ft 299 kts 113°
2026-05-05 19:53 25.85292 -80.88023 8552 ft 300 kts 113°
2026-05-05 19:53 25.84469 -80.85886 8187 ft 299 kts 113°
2026-05-05 19:53 25.83663 -80.83790 7828 ft 296 kts 112°
2026-05-05 19:54 25.82856 -80.81695 7479 ft 293 kts 112°
2026-05-05 19:54 25.82056 -80.79619 7142 ft 290 kts 112°
2026-05-05 19:54 25.81272 -80.77583 6806 ft 287 kts 112°
2026-05-05 19:54 25.80488 -80.75549 6457 ft 284 kts 112°
2026-05-05 19:55 25.79721 -80.73560 6143 ft 281 kts 111°
2026-05-05 19:55 25.78956 -80.71569 5947 ft 278 kts 110°
2026-05-05 19:55 25.78449 -80.69508 5940 ft 280 kts 96°
2026-05-05 19:55 25.78390 -80.67339 5935 ft 280 kts 86°
2026-05-05 19:56 25.78478 -80.65241 5928 ft 267 kts 85°
2026-05-05 19:56 25.78578 -80.63236 5923 ft 251 kts 85°
2026-05-05 19:56 25.78671 -80.61359 5930 ft 242 kts 85°
2026-05-05 19:56 25.78768 -80.59560 5941 ft 243 kts 84°
2026-05-05 19:57 25.78868 -80.57700 5948 ft 244 kts 85°
2026-05-05 19:57 25.78933 -80.56457 5883 ft 240 kts 84°
2026-05-05 19:57 25.79056 -80.54013 5360 ft 234 kts 85°
2026-05-05 19:57 25.79134 -80.52237 4869 ft 234 kts 85°
2026-05-05 19:58 25.79210 -80.50427 4337 ft 234 kts 85°
2026-05-05 19:58 25.79284 -80.48650 3856 ft 230 kts 86°
2026-05-05 19:58 25.79349 -80.46907 3300 ft 226 kts 86°
2026-05-05 19:58 25.79430 -80.45154 2849 ft 225 kts 85°
2026-05-05 19:59 25.79527 -80.43452 2306 ft 220 kts 85°
2026-05-05 19:59 25.79602 -80.41829 1947 ft 206 kts 85°
2026-05-05 19:59 25.79660 -80.40316 1763 ft 183 kts 85°
2026-05-05 19:59 25.79710 -80.38983 1539 ft 166 kts 85°
2026-05-05 20:00 25.79759 -80.37762 1292 ft 151 kts 85°
2026-05-05 20:00 25.79805 -80.36656 1074 ft 137 kts 85°
2026-05-05 20:00 25.79847 -80.35657 927 ft 136 kts 86°
2026-05-05 20:00 25.79889 -80.34605 770 ft 135 kts 86°
2026-05-05 20:01 25.79931 -80.33554 608 ft 134 kts 86°
2026-05-05 20:01 25.79971 -80.32531 442 ft 132 kts 87°
2026-05-05 20:01 25.80015 -80.31515 267 ft 131 kts 86°
2026-05-05 20:01 25.80064 -80.30512 126 ft 129 kts 87°
2026-05-05 20:02 25.80096 -80.29533 13 ft 118 kts 87°
2026-05-05 20:02 25.80126 -80.28772 14 ft 76 kts 87°
2026-05-05 20:02 25.80130 -80.28294 14 ft 41 kts 104°
2026-05-05 20:02 25.80087 -80.28206 14 ft 0 kts 133°
2026-05-05 20:03 25.80073 -80.28194 14 ft 3 kts 150°
2026-05-05 20:03 25.80008 -80.28155 14 ft 13 kts 159°
2026-05-05 20:03 25.79916 -80.28151 14 ft 13 kts 206°
2026-05-05 20:04 25.79877 -80.28213 14 ft 7 kts 211°
2026-05-05 20:04 25.79834 -80.28216 14 ft 4 kts 178°
2026-05-05 20:04 25.79831 -80.28216 14 ft 0 kts 178°